Regional Weather Roundup
Issued by NWS State College, PA

Home | Current Version | Previous Version | Graphics & Text | Print | Product List | Glossary On
Versions: 1 2 3 4 5 6 7 8 9 10 11 12 13 14 15 16 17 18 19 20 21 22 23 24 25 26 27 28 29 30 31 32 33 34 35 36 37 38 39 40 41 42 43 44 45 46 47 48 49 50
000
ASUS41 KCTP 022303
RWRCTP

REGIONAL WEATHER ROUNDUP
NATIONAL WEATHER SERVICE STATE COLLEGE PA
600 PM EST FRI DEC 02 2016

Note: "fair" indicates few or no clouds below 12,000 feet with no
significant weather and/or obstructions to visibility.

* = STATION THAT DOES NOT REPORT PRECIPITATION /E.G. RAIN...SNOW...ETC/
    THUNDER OR FOG.

PAZ002>004-007>009-013>016-020>023-029>032-030000-
WESTERN PENNSYLVANIA

CITY           SKY/WX    TMP DP  RH WIND       PRES   REMARKS
ERIE           CLOUDY    41  30  65 W16G28    30.04R
MEADVILLE      CLOUDY    34  32  92 W8        30.04R
FRANKLIN*        N/A     34  28  80 W10       30.05R
NEW CASTLE     LGT RAIN  35  33  92 W7        30.10R
BEAVER COUNTY  NOT AVBL
BUTLER*        CLOUDY    36  28  75 W16       30.10S
PITTSBURGH INT FLURRIES  39  31  72 W12       30.09R
PITTSBURGH     CLOUDY    36  28  73 W15       30.10R
INDIANA*       CLOUDY    36  32  87 W10G18    30.08R
LATROBE        CLOUDY    36  32  87 SW13      30.11R
WASHINGTON CO* CLOUDY    36  28  75 W8        30.13S
$$

PAZ004>006-010>012-017>019-024>028-033>037-041-042-045-046-049>053-030000-
CENTRAL PENNSYLVANIA

CITY           SKY/WX    TMP DP  RH WIND       PRES   REMARKS
BRADFORD       FLURRIES  33  30  88 W15G24    29.94R
DUBOIS         CLOUDY    35  29  78 W15G22    29.99R
CLEARFIELD     FLURRIES  36  32  85 W9G21     30.00R
JOHNSTOWN      CLOUDY    32  29  88 W15G28    30.00R
ALTOONA        CLOUDY    38  29  70 W16       30.03R
STATE COLLEGE  CLOUDY    37  30  75 W13G23    29.99R
WILLIAMSPORT   CLOUDY    42  32  67 W10       29.95R
SELINSGROVE    CLOUDY    43  30  60 SW6       29.99R
FT INDIANTOWN  CLOUDY    42  28  56 SW13      29.98S
CAPITAL CITY   CLOUDY    43  28  55 W12       30.02R
HARRISBURG     CLOUDY    43  31  62 W13G21    30.01S
YORK           CLOUDY    41  29  62 W12       30.03R
$$

PAZ038>040-043-044-047-048-054-055-060>062-067>071-030000-
EASTERN PENNSYLVANIA

CITY           SKY/WX    TMP DP  RH WIND       PRES   REMARKS
SCRANTON       CLOUDY    42  30  62 W13       29.90R
MOUNT POCONO   CLOUDY    36  26  67 W16G23    29.85S
ALLENTOWN      CLOUDY    45  27  49 W14G25    29.94R
QUAKERTOWN*    CLOUDY    43  27  52 W8G17     29.96R
READING        CLOUDY    43  26  51 W14G20    29.97R
LANCASTER      CLOUDY    42  31  64 W15       30.00R
COATESVILLE    CLOUDY    41  28  60 W14       30.00S
POTTSTOWN      CLOUDY    43  26  51 W10G17    29.99R
BLUE BELL      CLOUDY    43  28  56 W13G20    29.96S
DOYLESTOWN     CLOUDY    45  28  51 W12G21    29.94R
WILLOW GROVE   NOT AVBL
NORTH PHILA    CLOUDY    46  27  47 W15G28    29.98R
PHILADELPHIA   MOCLDY    45  27  49 W21G28    29.99R
$$




USA.gov is the U.S. government's official web portal to all federal, state and local government web resources and services.